INMARSAT 3-F5
1 25153U 98006B   03025.00612270  .00000143  00000-0  10000-3 0  8369
2 25153   0.4572 357.0286 0004605 321.7814 192.2485  1.00270498 18256
HOT BIRD 4
1 25237U 98013A   03013.80550721  .00000107  00000-0  10000-3 0  3250
2 25237   0.0242 116.4838 0007929 193.6371 105.7449  1.00276095 18185
NOAA 15
1 25338U 98030A   03027.96041197 +.00000182 +00000-0 +97435-4 0 09904
2 25338 098.5504 050.6959 0011029 024.3318 335.8380 14.24234678244722
RESURS O1-N4
1 25394U 98043A   03028.41414390  .00000141  00000-0  80675-4 0  4346
2 25394  98.6361 106.7315 0001740 143.1703 216.9595 14.23870009236521
TMSAT
1 25396U 98043C   03028.23833675 -.00000043  00000-0  00000+0 0  8186
2 25396  98.6315 105.7620 0003110 171.6563 188.4668 14.23504007236495
TECHSAT 1B
1 25397U 98043D   03027.97061159 +.00000082 +00000-0 +55462-4 0 01022
2 25397 098.6263 104.4054 0000928 168.6946 191.4251 14.22954616236429
ASTRA 2A
1 25462U 98050A   03023.69277567  .00000000  00000-0  10000-3 0  5291
2 25462   0.0332  23.2945 0014243 166.1651 210.9165  1.00270553 16187
EUTELSAT W2
1 25491U 98056A   03028.07347802  .00000101  00000-0  00000+0 0  5709
2 25491   0.0401 111.7994 0004060 192.7728 224.7947  1.00274293 15836
HOT BIRD 5
1 25495U 98057A   03024.00223959  .00000159  00000-0  00000+0 0  4947
2 25495   0.0202 256.5555 0004157  52.8082 207.4319  1.00269503 15767
SEDSAT 1
1 25509U 98061B   03028.04168341  .00001038  00000-0  19814-3 0  7665
2 25509  31.4295 274.7391 0357355 114.9168 248.9026 14.27400727222234
PAN SAT
1 25520U 98064B   03027.14426250  .00002624  00000-0  13142-3 0  6330
2 25520  28.4584  13.1907 0005979 111.2576 248.8660 15.13765161234189
ISS (ZARYA)
1 25544U 98067A   03028.61240741  .00124761  00000-0  15000-2 0  6343
2 25544  51.6350   1.3345 0006821  79.5145 258.8223 15.59915858239220
ORSTED
1 25635U 99008B   03027.92095220  .00000809  00000-0  21173-3 0  8171
2 25635  96.4482  19.3384 0146612  38.1753 322.9721 14.44794486206815
SUNSAT
1 25636U 99008C   03027.94323747 +.00000384 +00000-0 +10792-3 0 07398
2 25636 096.4516 018.0574 0150495 044.2645 317.0472 14.42930798206693
UOSAT 12
1 25693U 99021A   03028.34845222  .00000270  00000-0  58576-4 0  6529
2 25693  64.5600  75.7348 0018846 317.7835  42.1815 14.76362775203120
FENGYUN 1C
1 25730U 99025A   03028.39073676  .00000039  00000-0  44452-4 0  7539
2 25730  98.6357  53.5862 0015261  64.4858 295.7891 14.11731695191646
ASTRA 1H
1 25785U 99033A   03023.00000000  .00000123  00000-0  10000-3 0  3690
2 25785   0.0122 319.8851 0002995  65.1991 116.0174  1.00273184 13230
TERRA
1 25994U 99068A   03028.29998050  .00000415  00000-0  10220-3 0  6441
2 25994  98.2029 104.8487 0001082  67.9471 292.1842 14.57106090165573
JAWSAT
1 26061U 00004A   03028.21559067  .00000528  00000-0  19374-3 0  7515
2 26061 100.2109  81.3188 0034839 340.5776  19.4073 14.37799776157465
OPAL
1 26063U 00004C   03028.15703831  .00000137  00000-0  67828-4 0  7086
2 26063 100.2158  78.8491 0037231 347.5601  12.4651 14.35472165157319
ASUSAT
1 26065U 00004E   03028.39311738  .00000170  00000-0  79143-4 0  7197
2 26065 100.2156  79.2730 0037223 348.2775  11.7534 14.35499162157342
GOES 11
1 26352U 00022A   03025.39923521 -.00000036  00000-0  10000-3 0  9934
2 26352   0.0843 109.5107 0004488 167.9898 237.7936  1.00262988  9990
EUTELSAT W4
1 26369U 00028A   03027.82381367  .00000153  00000-0  00000+0 0  3471
2 26369   0.0483  43.9257 0006599 239.5452 175.8942  1.00275910  9833
FENGYUN 2B
1 26382U 00032A   03027.27959218 -.00000326  00000-0  00000+0 0  7765
2 26382   0.6198 287.0511 0000458 123.7991 279.9726  1.00259722  9481
EUTELSAT W1
1 26487U 00052A   03026.88523360  .00000067  00000-0  10000-3 0  3485
2 26487   0.0153 287.3566 0003967 302.4083 224.6414  1.00270824  8791
ASTRA 2B
1 26494U 00054A   03023.00000000  .00000154  00000-0  00000+0 0  2523
2 26494   0.0178 354.5658 0005000 302.8402 212.7100  1.00276704  8652
NOAA 16
1 26536U 00055A   03027.82602835  .00000473  00000-0  28327-3 0  1843
2 26536  98.8992 336.2742 0010708  11.6721 348.4670 14.11893203121086
SAUDISAT 1A
1 26545U 00057A   03027.77244225 +.00001176 +00000-0 +17474-3 0 04063
2 26545 064.5584 098.9118 0053503 242.3237 117.2453 14.78921898126000
UNISAT
1 26547U 00057C   03027.76984630 +.00002144 +00000-0 +29544-3 0 04264
2 26547 064.5570 101.2372 0060735 244.7003 114.7813 14.79649592125964
TIUNGSAT 1
1 26548U 00057D   03027.62597707 +.00001480 +00000-0 +20485-3 0 04082
2 26548 064.5573 092.4944 0046759 241.3950 118.2443 14.81193114126122
SAUDISAT 1B
1 26549U 00057E   03027.65753509 +.00001378 +00000-0 +20565-3 0 06784
2 26549 064.5568 103.2660 0057823 242.7748 116.7451 14.77862697125908
AMSAT OSCAR 40
1 26609U 00072B   03018.40123252 -.00000010  00000-0  10000-3 0  3050
2 26609   7.9708  69.8773 7935358 134.4243 325.7472  1.25596623 10197
GOES 12
1 26871U 01031A   03027.44413944 -.00000125  00000-0  10000-3 0  7928
2 26871   0.3818 276.9016 0004300 347.2883 280.2513  1.00364071  5614
PCSAT
1 26931U 01043C   03027.96998269 +.00000193 +00000-0 +10875-3 0 04069
2 26931 067.0483 311.2181 0005205 261.8139 098.2370 14.29103748069261
SAPPHIRE
1 26932U 01043D   03028.23065427  .00000128  00000-0  82808-4 0  3829
2 26932  67.0570 310.2560 0005731 241.1894 118.8631 14.29286237 69323
ENVISAT
1 27386U 02009A   03028.37742393  .00000164  00000-0  76977-4 0  8875
2 27386  98.5458  97.2330 0000891  92.4821 267.6464 14.32249148 47717
IDEFIX/ARIANE 42P
1 27422U 02021B   03028.23117407  .00000234  00000-0  11237-3 0  2191
2 27422  98.6986 107.5285 0012151 209.0395 151.0111 14.27958131 38418
NOAA 17
1 27453U 02032A   03028.61638051  .00000273  00000-0  12058-3 0  2849
2 27453  98.7582  99.9353 0012574  59.6209 300.6691 14.23280181 30985
HOT BIRD 6
1 27499U 02038A   03013.80550721  .00000106  00000-0  10000-3 0   665
2 27499   0.0928  32.8693 0008090 290.3889  92.5421  1.00271722  1476
RUBIN 2
1 27605U 02058A   03027.76245964  .00000627  00000-0  12179-3 0   405
2 27605  64.5539 263.4566 0029767 118.8620 241.5467 14.71397370  5605
STS-107     
1 27647U 03003A   03028.54212616  .00027445  31383-8  47842-4 0   350
2 27647  39.0177 149.7603 0009312 109.8154  75.8820 16.01012722  1922
